Location: Banff
(51.1667°N, 115.5667°W)
Time: 23:17:01
(UTC+00:00)

S-56A Canister/Altair - Visible Passes

Search period start: 25 November 2020 00:00
Search period end: 05 December 2020 00:00
Orbit: 633 x 2499 km, 38.9° (Epoch: 25 November)

Date Brightness Start Highest point End Pass type
(mag) Time Alt. Az. Time Alt. Az. Time Alt. Az.
25 Nov 10.7 03:52:47 10° SSW 03:54:32 14° SSW 03:54:32 14° SSW visible
26 Nov 10.4 03:19:44 10° SSW 03:23:49 17° S 03:23:49 17° S visible
27 Nov 10.3 02:46:42 10° SSW 02:53:04 19° SSE 02:53:04 19° SSE visible
27 Nov 10.9 04:49:16 10° SW 04:50:31 13° SW 04:50:31 13° SW visible
28 Nov 10.3 02:13:42 10° S 02:20:28 18° SSE 02:22:18 17° SE visible
28 Nov 10.5 04:15:57 10° SW 04:19:45 20° SSW 04:19:45 20° SSW visible
29 Nov 10.4 01:40:45 10° S 01:47:36 18° SSE 01:51:31 14° SE visible
29 Nov 10.1 03:42:36 10° SW 03:48:57 27° SSW 03:48:57 27° SSW visible
30 Nov 10.6 01:07:54 10° S 01:14:42 17° SSE 01:20:23 10° ESE visible
30 Nov 9.9 03:09:14 10° SW 03:18:07 30° S 03:18:07 30° S visible
30 Nov 10.9 05:13:55 10° WSW 05:15:32 15° WSW 05:15:32 15° WSW visible
01 Dec 10.7 00:35:09 10° S 00:41:45 16° SE 00:47:24 10° ESE visible
01 Dec 9.9 02:35:52 10° SW 02:45:36 30° SSE 02:47:15 29° SSE visible
01 Dec 10.5 04:40:26 10° WSW 04:44:41 23° SW 04:44:41 23° SW visible
02 Dec 10.0 02:02:32 10° SW 02:12:39 30° SSE 02:16:22 24° SE visible
02 Dec 10.1 04:06:56 10° WSW 04:13:48 31° SSW 04:13:48 31° SSW visible
03 Dec 10.2 01:29:13 10° SSW 01:39:40 29° SSE 01:45:28 17° ESE visible
03 Dec 9.7 03:33:23 10° WSW 03:42:54 38° S 03:42:54 38° S visible
03 Dec 11.0 05:39:11 10° WSW 05:40:20 13° WSW 05:40:20 13° WSW visible
04 Dec 10.5 00:55:58 10° SSW 01:06:37 29° SSE 01:14:34 11° ESE visible
04 Dec 9.6 02:59:50 10° WSW 03:10:47 39° S 03:11:59 38° SSE visible
04 Dec 10.6 05:05:35 10° WSW 05:09:25 21° WSW 05:09:25 21° WSW visible
